Tracking 26492 objects as of 8-Dec-2022
HD Live streaming from Space Station
objects crossing your sky now

STARLINK-4776

Track STARLINK-4776 now!
10-day predictions
STARLINK-4776 is classified as:


NORAD ID: 53837
Int'l Code: 2022-114V
Perigee: 545.5 km
Apogee: 548.2 km
Inclination: 53.2 °
Period: 95.4 minutes
Semi major axis: 6917 km
RCS: Unknown
Launch date: September 19, 2022
Source: United States (US)
Launch site: AIR FORCE EASTERN TEST RANGE (AFETR)
aabbcc
Your satellite tracking list
Your tracking list is empty




NASA's NSSDC Master Catalog

Two Line Element Set (TLE):
1 53837U 22114V   22342.05912148  .00000464  00000-0  47227-4 0  9999
2 53837  53.2173 235.3078 0001969  47.9733 312.1427 15.08854520 13007
Source of the keplerian elements: AFSPC